Volver al catálogo

OPS 5346

ActivoNavegaciónGEO
NORAD 4418·PAYLOAD·🇺🇸 United States

Lanzado Jun 19, 1970 desde Cape Canaveral Space Force Station

Loading…

TLE

ActualizadoSource: Mike McCants

Época: Sep 15, 2026, 00:17 UTC

1 04418U 70046A   26258.01208341  .00000000  00000-0  00000-0 0    09
2 04418   2.5363  82.6768 0006812  55.6914 304.3847  1.00260635 19330

Sigue OPS 5346 en tiempo real con AllMySat

Download on the App Store